Change the Weather History Date:

Saturday, January 5, 2013

  Actual Average (KVPZ) Record (KVPZ)
Temperature  
Mean Temperature 24 °F 24 °F  
Max Temperature 32 °F 31 °F 55 °F (1998)
Min Temperature 17 °F 17 °F -20 °F (1999)
Degree Days  
Heating Degree Days 40 41  
Month to date heating degree days 205  
Since 1 July heating degree days 2607  
Cooling Degree Days 0 0  
Month to date cooling degree days 0  
Year to date cooling degree days 0  
Moisture  
Dew Point 23 °F    
Average Humidity 86    
Maximum Humidity 98    
Minimum Humidity 71    
Precipitation  
Precipitation 0.00 in 0.06 in 0.17 in (2003)
Month to date precipitation 0.28  
Year to date precipitation 0.28  
Sea Level Pressure  
Sea Level Pressure 30.15 in    
Wind  
Wind Speed 8 mph (SSW)    
Max Wind Speed 17 mph    
Max Gust Speed 24 mph    
Visibility 8 miles    
Events Snow    
T = Trace of Precipitation, MM = Missing Value Source: NWS Daily Summary

Daily Weather History Graph

Daily Weather History Graph

Search for Another Location

Airport or City:

Trip Planner

Search our weather history database for the weather conditions in past years. The results will help you decide how hot, cold, wet, or windy it might be!

Date:

Astronomy

Jan. 05, 2013 Rise Set
Actual Time 7:13 AM CST 4:31 PM CST
Civil Twilight 6:42 AM CST 5:02 PM CST
Nautical Twilight 6:07 AM CST 5:37 PM CST
Astronomical Twilight 5:34 AM CST 6:10 PM CST
Moon 12:16 AM CST (1/5) 11:23 AM CST (1/5)
Length of Visible Light 10h 20m
Length of Day
9h 17m
Last Quarter, 44% of the Moon is Illuminated
Jan 5
Last Quarter
Jan 11
New
Jan 18
First Quarter
Jan 26
Full
Feb 3
Last Quarter

Hourly Weather History & Observations

Time (CST) Temp. Windchill Dew Point Humidity Pressure Visibility Wind Dir Wind Speed Gust Speed Precip Events Conditions
12:15 AM 23.0 °F 14.7 °F 18.9 °F 84% 30.24 in 10.0 mi SW 6.9 mph - N/A   Overcast
12:35 AM 22.6 °F 16.5 °F 18.5 °F 84% 30.23 in 10.0 mi WSW 4.6 mph - N/A   Overcast
12:55 AM 21.0 °F 13.4 °F 17.4 °F 86% 30.22 in 10.0 mi SW 5.8 mph - N/A   Overcast
1:15 AM 19.9 °F 13.4 °F 16.3 °F 86% 30.22 in 10.0 mi SW 4.6 mph - N/A   Overcast
1:35 AM 20.1 °F 12.3 °F 17.4 °F 89% 30.23 in 10.0 mi SW 5.8 mph - N/A   Overcast
1:55 AM 20.3 °F 9.8 °F 16.9 °F 87% 30.26 in 10.0 mi SW 9.2 mph - N/A   Overcast
2:15 AM 22.1 °F 12.8 °F 18.3 °F 85% 30.26 in 10.0 mi SW 8.1 mph - N/A   Overcast
2:35 AM 22.1 °F 13.7 °F 18.1 °F 85% 30.26 in 10.0 mi SW 6.9 mph - N/A   Overcast
2:55 AM 21.9 °F 13.4 °F 18.0 °F 85% 30.26 in 10.0 mi SW 6.9 mph - N/A   Overcast
3:15 AM 21.2 °F 11.7 °F 17.6 °F 86% 30.26 in 10.0 mi SW 8.1 mph - N/A   Overcast
3:35 AM 20.8 °F 13.2 °F 17.1 °F 85% 30.25 in 10.0 mi SW 5.8 mph - N/A   Overcast
3:55 AM 19.4 °F 11.5 °F 16.5 °F 89% 30.25 in 10.0 mi SW 5.8 mph - N/A   Overcast
4:15 AM 18.3 °F 11.5 °F 15.6 °F 89% 30.25 in 10.0 mi SW 4.6 mph - N/A   Overcast
4:35 AM 18.5 °F 9.3 °F 16.3 °F 91% 30.24 in 10.0 mi SW 6.9 mph - N/A   Overcast
4:55 AM 18.9 °F 12.1 °F 16.5 °F 91% 30.24 in 10.0 mi SW 4.6 mph - N/A   Overcast
5:15 AM 17.6 °F - 15.1 °F 90% 30.24 in 7.0 mi Calm Calm - N/A   Mostly Cloudy
5:35 AM 18.0 °F 12.7 °F 16.0 °F 92% 30.23 in 7.0 mi South 3.5 mph - N/A   Scattered Clouds
5:55 AM 19.0 °F 11.1 °F 17.1 °F 92% 30.24 in 7.0 mi SSW 5.8 mph - N/A   Mostly Cloudy
6:15 AM 18.5 °F 11.7 °F 16.3 °F 91% 30.23 in 7.0 mi SSW 4.6 mph - N/A   Mostly Cloudy
6:35 AM 18.7 °F 13.5 °F 16.7 °F 92% 30.23 in 7.0 mi SSW 3.5 mph - N/A   Scattered Clouds
7:15 AM 19.2 °F 12.5 °F 16.7 °F 90% 30.22 in 7.0 mi South 4.6 mph - N/A   Scattered Clouds
7:35 AM 19.6 °F 11.7 °F 17.2 °F 91% 30.22 in 7.0 mi South 5.8 mph - N/A   Clear
7:55 AM 20.7 °F 11.0 °F 17.6 °F 88% 30.23 in 5.0 mi SSW 8.1 mph - N/A   Clear
8:15 AM 21.4 °F 12.8 °F 17.8 °F 86% 30.24 in 7.0 mi SSW 6.9 mph - N/A   Clear
8:35 AM 22.5 °F 13.2 °F 18.1 °F 83% 30.24 in 7.0 mi SSW 8.1 mph - N/A   Clear
8:55 AM 23.5 °F 17.6 °F 18.1 °F 80% 30.23 in 7.0 mi SSW 4.6 mph - N/A   Clear
9:15 AM 24.3 °F 17.3 °F 18.1 °F 77% 30.22 in 10.0 mi South 5.8 mph - N/A   Clear
9:55 AM 25.7 °F 19.0 °F 19.2 °F 76% 30.22 in 7.0 mi South 5.8 mph - N/A   Clear
10:15 AM 26.6 °F 18.2 °F 19.9 °F 76% 30.21 in 10.0 mi South 8.1 mph - N/A   Clear
10:55 AM 29.1 °F 20.6 °F 21.9 °F 74% 30.19 in 7.0 mi SSW 9.2 mph - N/A   Clear
11:15 AM 30.0 °F 22.4 °F 22.6 °F 74% 30.18 in 10.0 mi SSW 8.1 mph - N/A   Clear
11:35 AM 31.1 °F 20.9 °F 23.2 °F 72% 30.17 in 10.0 mi SSW 13.8 mph 18.4 mph N/A   Clear
11:55 AM 31.3 °F 22.7 °F 23.0 °F 71% 30.16 in 10.0 mi South 10.4 mph - N/A   Clear
12:15 PM 31.6 °F 24.4 °F 23.5 °F 72% 30.14 in 10.0 mi South 8.1 mph - N/A   Scattered Clouds
12:35 PM 31.6 °F 23.7 °F 23.7 °F 73% 30.14 in 10.0 mi SSW 9.2 mph - N/A   Scattered Clouds
12:55 PM 32.0 °F 24.8 °F 23.9 °F 72% 30.13 in 10.0 mi South 8.1 mph - N/A   Mostly Cloudy
1:15 PM 32.0 °F 23.6 °F 23.9 °F 72% 30.11 in 10.0 mi South 10.4 mph - N/A   Scattered Clouds
1:35 PM 32.0 °F 24.2 °F 24.1 °F 73% 30.10 in 10.0 mi SSW 9.2 mph - N/A   Overcast
1:55 PM 32.0 °F 25.6 °F 24.6 °F 74% 30.09 in 10.0 mi South 6.9 mph - N/A   Overcast
2:15 PM 32.0 °F 23.6 °F 25.2 °F 76% 30.11 in 10.0 mi SSW 10.4 mph - N/A   Overcast
2:35 PM 32.0 °F 22.1 °F 25.3 °F 76% 30.11 in 10.0 mi SSW 13.8 mph 18.4 mph N/A   Mostly Cloudy
2:55 PM 32.0 °F 22.5 °F 25.5 °F 77% 30.10 in 10.0 mi SSW 12.7 mph 17.3 mph N/A   Overcast
3:15 PM 32.4 °F 21.3 °F 26.6 °F 79% 30.10 in 5.0 mi SW 17.3 mph 20.7 mph N/A Snow Light Snow
3:35 PM 32.0 °F 23.6 °F 28.9 °F 88% 30.10 in 5.0 mi SW 10.4 mph - N/A   Overcast
3:55 PM 31.8 °F 23.9 °F 29.7 °F 92% 30.10 in 2.0 mi SW 9.2 mph - N/A Snow Light Snow
4:15 PM 31.6 °F 23.1 °F 30.2 °F 94% 30.10 in 2.0 mi SW 10.4 mph - N/A Snow Light Snow
5:15 PM 31.6 °F 25.1 °F 30.9 °F 97% 30.07 in 4.0 mi SSW 6.9 mph - N/A Snow Light Snow
5:35 PM 31.8 °F 23.9 °F 31.1 °F 97% 30.08 in 4.0 mi SSW 9.2 mph - N/A   Overcast
6:15 PM 32.0 °F 24.8 °F 31.5 °F 98% 30.07 in 4.0 mi South 8.1 mph - N/A   Overcast
6:35 PM 32.0 °F 24.2 °F 31.3 °F 97% 30.07 in 5.0 mi SSW 9.2 mph - N/A   Overcast
6:55 PM 31.8 °F 23.9 °F 31.1 °F 97% 30.07 in 5.0 mi SSW 9.2 mph - N/A   Overcast
7:15 PM 31.6 °F 22.1 °F 30.9 °F 97% 30.06 in 5.0 mi South 12.7 mph 18.4 mph N/A   Overcast
7:55 PM 31.8 °F 23.9 °F 30.6 °F 95% 30.07 in 7.0 mi SSW 9.2 mph 17.3 mph N/A   Overcast
8:15 PM 32.0 °F 22.5 °F 30.6 °F 94% 30.06 in 7.0 mi SSW 12.7 mph 17.3 mph N/A   Overcast
8:35 PM 32.0 °F 22.5 °F 30.2 °F 93% 30.05 in 7.0 mi SSW 12.7 mph 19.6 mph N/A   Overcast
8:55 PM 32.0 °F 22.1 °F 29.8 °F 92% 30.04 in 7.0 mi SSW 13.8 mph 18.4 mph N/A   Overcast
9:15 PM 32.2 °F 22.7 °F 29.3 °F 89% 30.04 in 10.0 mi SSW 12.7 mph 18.4 mph N/A   Overcast
9:35 PM 32.2 °F 22.3 °F 29.1 °F 88% 30.03 in 10.0 mi SSW 13.8 mph 19.6 mph N/A   Overcast
9:55 PM 32.9 °F 23.7 °F 28.8 °F 85% 30.03 in 10.0 mi SW 12.7 mph 24.2 mph N/A Snow Light Snow
10:15 PM 32.9 °F 22.0 °F 29.1 °F 86% 30.02 in 7.0 mi SW 17.3 mph 21.9 mph N/A Snow Light Snow
10:35 PM 32.4 °F 22.1 °F 29.8 °F 90% 30.02 in 4.0 mi SW 15.0 mph - N/A Snow Light Snow
10:55 PM 32.4 °F 23.0 °F 30.6 °F 93% 30.01 in 5.0 mi SW 12.7 mph - N/A Snow Light Snow
11:15 PM 32.7 °F 23.4 °F 30.7 °F 92% 30.00 in 7.0 mi SW 12.7 mph 21.9 mph N/A Snow Light Snow
11:35 PM 32.9 °F 23.2 °F 30.9 °F 92% 30.00 in 10.0 mi SW 13.8 mph 19.6 mph N/A   Overcast
11:55 PM 32.9 °F 22.8 °F 30.9 °F 92% 29.99 in 10.0 mi SW 15.0 mph 20.7 mph N/A   Overcast